TimeEDT,TemperatureF,Dew PointF,Humidity,Sea Level PressureIn,VisibilityMPH,Wind Direction,Wind SpeedMPH,Gust SpeedMPH,PrecipitationIn,Events,Conditions,WindDirDegrees,DateUTC
12:15 AM,68.0,62.6,83,30.26,10.0,South,3.5,-,N/A,,Clear,170,2013-07-15 04:15:00
12:35 AM,69.8,62.6,78,30.26,10.0,Calm,Calm,-,N/A,,Clear,0,2013-07-15 04:35:00
12:55 AM,68.0,62.6,83,30.26,10.0,Calm,Calm,-,N/A,,Clear,0,2013-07-15 04:55:00
1:15 AM,68.0,62.6,83,30.26,10.0,Calm,Calm,-,N/A,,Clear,0,2013-07-15 05:15:00
1:35 AM,66.2,62.6,88,30.26,10.0,Calm,Calm,-,N/A,,Clear,0,2013-07-15 05:35:00
1:55 AM,66.2,62.6,88,30.26,10.0,South,3.5,-,N/A,,Clear,190,2013-07-15 05:55:00
2:15 AM,66.2,62.6,88,30.26,10.0,South,3.5,-,N/A,,Clear,190,2013-07-15 06:15:00
2:35 AM,64.4,62.6,94,30.26,10.0,Calm,Calm,-,N/A,,Clear,0,2013-07-15 06:35:00
2:55 AM,62.6,60.8,94,30.26,10.0,Calm,Calm,-,N/A,,Clear,0,2013-07-15 06:55:00
3:15 AM,64.4,60.8,88,30.26,10.0,Calm,Calm,-,N/A,,Clear,0,2013-07-15 07:15:00
3:35 AM,64.4,60.8,88,30.27,10.0,Calm,Calm,-,N/A,,Clear,0,2013-07-15 07:35:00
3:55 AM,64.4,62.6,94,30.27,10.0,South,4.6,-,N/A,,Clear,180,2013-07-15 07:55:00
4:15 AM,68.0,62.6,83,30.27,10.0,South,4.6,-,N/A,,Clear,180,2013-07-15 08:15:00
4:35 AM,68.0,62.6,83,30.27,10.0,Calm,Calm,-,N/A,,Clear,0,2013-07-15 08:35:00
4:55 AM,64.4,60.8,88,30.27,10.0,Calm,Calm,-,N/A,,Clear,0,2013-07-15 08:55:00
5:15 AM,62.6,60.8,94,30.28,10.0,North,3.5,-,N/A,,Clear,360,2013-07-15 09:15:00
5:35 AM,62.6,60.8,94,30.28,10.0,Calm,Calm,-,N/A,,Clear,0,2013-07-15 09:35:00
5:55 AM,64.4,62.6,94,30.28,10.0,ENE,3.5,-,N/A,,Clear,70,2013-07-15 09:55:00
6:15 AM,62.6,60.8,94,30.28,10.0,Calm,Calm,-,N/A,,Clear,0,2013-07-15 10:15:00
6:35 AM,62.6,60.8,94,30.28,10.0,Calm,Calm,-,N/A,,Clear,0,2013-07-15 10:35:00
6:55 AM,62.6,60.8,94,30.29,10.0,Calm,Calm,-,N/A,,Clear,0,2013-07-15 10:55:00
7:15 AM,64.4,62.6,94,30.30,10.0,Calm,Calm,-,N/A,,Clear,0,2013-07-15 11:15:00
7:35 AM,66.2,64.4,94,30.30,10.0,ENE,3.5,-,N/A,,Clear,70,2013-07-15 11:35:00
7:55 AM,68.0,64.4,88,30.30,10.0,Calm,Calm,-,N/A,,Clear,0,2013-07-15 11:55:00
8:15 AM,69.8,64.4,83,30.30,10.0,Calm,Calm,-,N/A,,Clear,0,2013-07-15 12:15:00
8:35 AM,73.4,66.2,78,30.30,10.0,Calm,Calm,-,N/A,,Clear,0,2013-07-15 12:35:00
8:55 AM,73.4,64.4,73,30.31,10.0,Calm,Calm,-,N/A,,Clear,0,2013-07-15 12:55:00
9:15 AM,75.2,64.4,69,30.31,10.0,SW,3.5,-,N/A,,Mostly Cloudy,220,2013-07-15 13:15:00
9:35 AM,75.2,64.4,69,30.31,10.0,Calm,Calm,-,N/A,,Overcast,0,2013-07-15 13:35:00
9:55 AM,77.0,64.4,65,30.31,10.0,South,4.6,-,N/A,,Scattered Clouds,180,2013-07-15 13:55:00
10:15 AM,78.8,64.4,61,30.30,10.0,SW,4.6,-,N/A,,Clear,220,2013-07-15 14:15:00
10:35 AM,80.6,64.4,58,30.30,10.0,SSW,3.5,-,N/A,,Clear,200,2013-07-15 14:35:00
10:55 AM,80.6,66.2,61,30.30,10.0,SSW,4.6,-,N/A,,Clear,210,2013-07-15 14:55:00
11:15 AM,82.4,66.2,58,30.30,10.0,SSW,4.6,-,N/A,,Clear,200,2013-07-15 15:15:00
11:35 AM,82.4,66.2,58,30.30,10.0,South,6.9,-,N/A,,Clear,190,2013-07-15 15:35:00
11:55 AM,84.2,66.2,55,30.30,10.0,SW,4.6,-,N/A,,Clear,220,2013-07-15 15:55:00
12:15 PM,84.2,66.2,55,30.30,10.0,WSW,4.6,-,N/A,,Clear,250,2013-07-15 16:15:00
12:35 PM,84.2,66.2,55,30.29,10.0,WSW,5.8,-,N/A,,Partly Cloudy,250,2013-07-15 16:35:00
12:55 PM,84.2,64.4,51,30.29,10.0,SSW,3.5,-,N/A,,Scattered Clouds,210,2013-07-15 16:55:00
1:15 PM,86.0,66.2,51,30.28,10.0,West,3.5,-,N/A,,Mostly Cloudy,260,2013-07-15 17:15:00
1:35 PM,86.0,64.4,48,30.28,10.0,SSW,3.5,-,N/A,,Mostly Cloudy,200,2013-07-15 17:35:00
1:55 PM,86.0,64.4,48,30.28,10.0,WSW,8.1,-,N/A,,Mostly Cloudy,240,2013-07-15 17:55:00
2:15 PM,87.8,64.4,46,30.27,10.0,SW,10.4,-,N/A,,Scattered Clouds,220,2013-07-15 18:15:00
2:35 PM,87.8,64.4,46,30.27,10.0,SSW,4.6,17.3,N/A,,Mostly Cloudy,200,2013-07-15 18:35:00
2:55 PM,87.8,64.4,46,30.27,10.0,South,6.9,-,N/A,,Mostly Cloudy,180,2013-07-15 18:55:00
3:15 PM,89.6,64.4,43,30.27,10.0,WSW,5.8,-,N/A,,Mostly Cloudy,250,2013-07-15 19:15:00
3:35 PM,87.8,64.4,46,30.27,10.0,SW,8.1,18.4,N/A,,Partly Cloudy,230,2013-07-15 19:35:00
3:55 PM,87.8,62.6,43,30.27,10.0,WSW,9.2,-,N/A,,Clear,240,2013-07-15 19:55:00
4:15 PM,89.6,62.6,40,30.26,10.0,WSW,10.4,-,N/A,,Partly Cloudy,250,2013-07-15 20:15:00
4:35 PM,87.8,64.4,46,30.26,10.0,South,6.9,16.1,N/A,,Partly Cloudy,190,2013-07-15 20:35:00
4:55 PM,87.8,62.6,43,30.26,10.0,SSW,9.2,-,N/A,,Scattered Clouds,210,2013-07-15 20:55:00
5:15 PM,89.6,62.6,40,30.26,10.0,WSW,6.9,-,N/A,,Partly Cloudy,250,2013-07-15 21:15:00
5:35 PM,87.8,62.6,43,30.26,10.0,SSW,8.1,-,N/A,,Clear,200,2013-07-15 21:35:00
5:55 PM,87.8,62.6,43,30.25,10.0,SW,5.8,-,N/A,,Clear,230,2013-07-15 21:55:00
6:15 PM,87.8,62.6,43,30.25,10.0,SW,6.9,-,N/A,,Clear,230,2013-07-15 22:15:00
6:35 PM,87.8,62.6,43,30.25,10.0,WSW,10.4,-,N/A,,Clear,250,2013-07-15 22:35:00
6:55 PM,87.8,64.4,46,30.25,10.0,WSW,5.8,-,N/A,,Clear,240,2013-07-15 22:55:00
7:15 PM,84.2,64.4,51,30.25,10.0,WSW,6.9,-,N/A,,Clear,240,2013-07-15 23:15:00
7:35 PM,84.2,64.4,51,30.25,10.0,WSW,6.9,-,N/A,,Clear,250,2013-07-15 23:35:00
7:55 PM,84.2,66.2,55,30.25,10.0,West,5.8,-,N/A,,Clear,260,2013-07-15 23:55:00
8:15 PM,82.4,64.4,54,30.25,10.0,WNW,6.9,-,N/A,,Clear,290,2013-07-16 00:15:00
8:35 PM,82.4,64.4,54,30.26,10.0,West,5.8,-,N/A,,Clear,270,2013-07-16 00:35:00
8:55 PM,80.6,66.2,61,30.26,10.0,WSW,3.5,-,N/A,,Clear,250,2013-07-16 00:55:00
9:15 PM,80.6,66.2,61,30.26,10.0,Calm,Calm,-,N/A,,Clear,0,2013-07-16 01:15:00
9:35 PM,78.8,66.2,65,30.26,10.0,Calm,Calm,-,N/A,,Clear,0,2013-07-16 01:35:00
9:55 PM,78.8,64.4,61,30.26,10.0,Calm,Calm,-,N/A,,Clear,0,2013-07-16 01:55:00
10:15 PM,78.8,64.4,61,30.27,10.0,West,3.5,-,N/A,,Clear,270,2013-07-16 02:15:00
10:35 PM,77.0,66.2,69,30.28,10.0,Calm,Calm,-,N/A,,Clear,0,2013-07-16 02:35:00
10:55 PM,77.0,66.2,69,30.28,10.0,Calm,Calm,-,N/A,,Clear,0,2013-07-16 02:55:00
11:15 PM,75.2,66.2,73,30.28,10.0,Calm,Calm,-,N/A,,Clear,0,2013-07-16 03:15:00
11:35 PM,73.4,64.4,73,30.28,10.0,Calm,Calm,-,N/A,,Clear,0,2013-07-16 03:35:00
11:55 PM,73.4,64.4,73,30.28,10.0,Calm,Calm,-,N/A,,Clear,0,2013-07-16 03:55:00